STARLINK-32277, 60376

Orbit data source: Space-Track

STARLINK-32277, 60376 is a payload satellite owned by SpaceX/Seattle (US) in LEO that was launched on Sun, 04 Aug 2024 UTC via an FALCON 9 launch vehicle from the Air Force Western Test Range (AFWTR). Payload-class satellites include a variety of spacecraft equipped with specific instruments for various scientific and technological missions. These include communications satellites like Starlink; space stations such as the ISS; scientific satellites like the Hubble; Earth observation satellites from companies like Planet Labs, Umbra, and HawkEye 360; GPS; miniature CubeSats for education and research; and military/defense satellites.

Loading next visibility...
Identifier
60376, 2024-138X
Orbit
LEO
Country
Flag of USUS
Related business
Manufacturer
SpaceX/Seattle
Mission
Operational Commercial Communications
Bus & Motor
STARLINK V2M, Unknown motor
Mass
730 kg wet, ~700 kg dry
Launch date (UTC)
2024-08-04 (1 year ago)
Launch vehicle
FALCON 9
Launch site
Air Force Western Test Range (AFWTR)
Object type
Payload
Rocket body
Debris
Shape & HBR
Box + 2 Pan, 17.7 m
Radar Cross Section
33.884 m², Large (>1 m²)

Expand to show TLE details & history
Last TLE update: 1 day ago

TLE from 1 day ago
0 STARLINK-32277
1 60376U 24138X   25353.14624884 -.00000933  00000-0 -19372-4 0  9998
2 60376  53.1627 323.8863 0001381  78.9769 281.1387 15.30206199 78292
Epoch: 2025-12-19T03:30Z
TLE epoch observation values (Epoch: 2025-12-19T03:30:35.899Z)
Latitude
-0.00004°
Longitude
-176.7549°
Altitude
475.914 km
Speed
7.629 km/s
True Right ascension
21h 35m 32s
True Declination
0° 00' 00"
Sunlit
Object was in daylight at epoch
Visualization orbit readout
Latitude
Unknown
Longitude
Unknown
Altitude
Unknown
Speed
Unknown
Apparent Right ascension
Unknown
Apparent Declination
Unknown
Sunlit
N/A
Visualization observer readout
Local Sidereal Time
06:19:00
Azimuth
Unknown
Elevation
Unknown
Doppler factor
Unknown
Orbital elements
Apogee altitude
476.399 km
Perigee altitude
474.506 km
Semi-major axis
6,853.59 km
Eccentricity
0.00014
Inclination
53.1627°
RAAN
323.8863°
Arg. of periapsis
78.9769°
True anomaly
281.12317°
Mean anomaly
281.1387°
Eccentric anomaly
281.13094°
Mean motion
3.8253 °/min
Orbital period
94.11 mins
BSTAR
-0.000019372
Loading maneuver chart data...
Computing Atmospheric mass density...
Loading historical data...
Loading historical data...
Loading historical data...
Loading historical data...
Loading historical data...
Loading historical data...
Loading historical data...

Documentation

Showing up to 5 results
|